Flag for U.S.A. Weather past 2 weeks in Providence, Rhode Island, U.S.A.

Now
65 °F

Broken clouds.


Feels Like: 65 °F
Forecast: 49 / 65 °F
Wind: 15 mph from West

Location: Green State Airport

Current Time: Apr 21, 2015 at 3:11:49 PM

Latest Report: Apr 21, 2015 at 2:51 PM


Visibility: 10 mi

Pressure: 29.59 "Hg

Humidity: 59%

Dew point: 50 °F

Location of ProvidenceLocation

Historic Weather in Providence — Graph

°F

Providence temperature yesterday

Maximum temperature yesterday: 56 °F (at 8:51 PM)
Minimum temperature yesterday: 42 °F (at 12:51 AM)
Average temperature yesterday: 48 °F

Past Weeks' High & Low Weather Summary

 TemperatureHumidityPressure
High75 °F (Apr 18, 3:51 PM)100% (Apr 21, 12:51 AM)30.50 "Hg (Apr 21, 12:51 AM)
Low34 °F (Apr 9, 4:51 AM)13% (Apr 15, 2:51 PM)29.53 "Hg (Apr 21, 8:51 AM)
Average50 °F66%30.13 "Hg
* Reported Apr 6 1:51 PM — Apr 21 1:51 PM, Providence, Weather by CustomWeather, © 2015

Note: Actual official high and low records may vary slightly from our data, if they occured in-between our weather recording intervals... More about our weather records

Advertising

Providence weather history for previous 24 hours

 ConditionsComfort  
Time TempWeatherWind HumidityBarometerVisibility
1:51 PM
Tue, Apr 21
68 °FBroken clouds.13 mph57%29.58 "Hg10 mi
12:51 PM68 °FScattered clouds.17 mph57%29.57 "Hg10 mi
11:51 AM67 °FScattered clouds.21 mph59%29.57 "Hg10 mi
10:51 AM67 °FScattered clouds.9 mph71%29.57 "Hg10 mi
9:51 AM62 °FBroken clouds.9 mph80%29.55 "Hg10 mi
8:51 AM57 °FScattered clouds.7 mph93%29.53 "Hg10 mi
7:51 AM54 °FFog.9 mph97%29.57 "Hg1 mi
6:51 AM56 °FFog.9 mph97%29.57 "Hg3 mi
5:58 AM56 °FLow clouds.10 mph100%29.57 "Hg10 mi
4:58 AM52 °FFog.6 mph97%29.56 "Hg1 mi
3:53 AM50 °FThunderstorms. Fog.6 mph100%29.57 "Hg0 mi
2:51 AM52 °FFog.7 mph97%29.61 "Hg1 mi
1:51 AM51 °FFog.12 mph100%29.64 "Hg1 mi
12:51 AM52 °FFog.15 mph100%29.69 "Hg1 mi
11:51 PM
Mon, Apr 20
53 °FDrizzle. Fog.17 mph96%29.70 "Hg2 mi
10:51 PM54 °FLight rain. Fog.17 mph97%29.71 "Hg4 mi
9:51 PM54 °FLight rain. Low clouds.18 mph97%29.73 "Hg7 mi
8:51 PM56 °FLow clouds.23 mph90%29.76 "Hg8 mi
7:51 PM54 °FLight rain. Low clouds.20 mph93%29.77 "Hg8 mi
6:58 PM54 °FLight rain. Fog.28 mph93%29.78 "Hg4 mi
5:51 PM54 °FLight rain. Fog.22 mph93%29.79 "Hg2 mi
4:51 PM53 °FRain. Fog.17 mph93%29.84 "Hg1 mi
3:51 PM51 °FHeavy rain. Fog.14 mph92%29.86 "Hg1 mi
Weather by CustomWeather, © 2015

See weather overviewHow to use our weather pages